Le nostre stazioni meteo in Italia

Pubblicità
Il mio iltempo24.it
Forli, Italia (16147): Temperatura & dewpoint: 06.11.2019 07:00:00 - 12.11.2019 07:00:00 (CET)Forli, Italia (16147): velocità del vento: 06.11.2019 07:00:00 - 12.11.2019 07:00:00 (CET)Forli, Italia (16147): direzione del vento: 06.11.2019 07:00:00 - 12.11.2019 07:00:00 (CET)Forli, Italia (16147): reduced air pressure: 06.11.2019 07:00:00 - 12.11.2019 07:00:00 (CET)Forli, Italia (16147): visibility: 06.11.2019 07:00:00 - 12.11.2019 07:00:00 (CET)Forli, Italia (16147): precipitazioni: 06.11.2019 07:00:00 - 12.11.2019 07:00:00 (CET)
Data & Tempo tt [°C] td [°C] ff [km/h] ff [kn] dd ppp [hPa] vv [km] rr [mm]
12.11.2019 07:00:00 - - - - - - - -
12.11.2019 06:00:00 9,1 7,9 11 6 ONO 1001,2 - 0,2
12.11.2019 05:00:00 9,0 7,9 11 6 ONO 1001,9 - 0,0
12.11.2019 04:00:00 9,0 8,1 8 4 O 1002,7 - 0,0
12.11.2019 03:00:00 9,0 8,2 11 6 NO 1003,4 - 0,0
12.11.2019 02:00:00 8,8 8,0 5 3 O 1004,7 - 0,0
12.11.2019 01:00:00 8,9 8,1 1 1 O 1005,2 - 0,0
12.11.2019 00:00:00 8,9 8,1 5 3 ONO 1005,9 - 0,0
11.11.2019 23:00:00 8,9 8,1 4 2 ONO 1006,5 - 0,0
11.11.2019 22:00:00 8,9 8,1 8 4 ONO 1007,0 - 0,0
11.11.2019 21:00:00 9,1 8,0 4 2 ONO 1007,2 - 0,0
11.11.2019 20:00:00 9,1 8,2 2 1 NNO 1007,8 - 0,0
11.11.2019 19:00:00 9,0 8,1 7 4 NO 1008,0 - 0,0
11.11.2019 18:00:00 9,1 8,0 8 4 NO 1008,2 2,5 0,0
11.11.2019 17:00:00 9,4 8,2 8 4 NO 1008,6 2,5 0,0
11.11.2019 16:00:00 10,1 8,4 11 6 ONO 1008,6 2,5 0,0
11.11.2019 15:00:00 10,2 8,3 4 2 - 1009,1 2,5 0,0
11.11.2019 14:00:00 10,3 8,4 4 2 - 1009,0 2,5 0,0
11.11.2019 13:00:00 9,8 8,1 4 2 - 1009,9 2,5 0,0
11.11.2019 12:00:00 9,6 8,2 5 3 - 1010,5 2,5 0,0
11.11.2019 11:00:00 9,6 8,2 8 4 ONO 1011,2 2,5 0,0
11.11.2019 10:00:00 9,5 8,3 5 3 ONO 1011,6 2,5 0,4
11.11.2019 09:00:00 9,2 8,0 6 3 ONO 1011,7 2,5 0,0
11.11.2019 08:00:00 9,4 7,8 5 3 ONO 1011,8 - 0,2
11.11.2019 07:00:00 9,1 7,9 4 2 O 1011,8 - 0,8
11.11.2019 06:00:00 9,1 7,5 4 2 O 1011,9 - 1,2
11.11.2019 05:00:00 9,8 6,9 5 3 O 1012,1 - 0,0
11.11.2019 04:00:00 9,5 6,9 7 4 O 1012,0 - 0,0
11.11.2019 03:00:00 9,2 6,8 10 5 ONO 1012,2 - 0,0
11.11.2019 02:00:00 9,3 6,7 2 1 O 1012,4 - 0,0
11.11.2019 01:00:00 9,4 6,8 3 1 ONO 1012,7 - 0,0
11.11.2019 00:00:00 9,3 6,9 4 2 OSO 1012,5 - 0,0
10.11.2019 23:00:00 9,1 6,9 - - - 1012,3 - 0,0
10.11.2019 22:00:00 8,9 6,9 4 2 OSO 1012,1 - 0,0
10.11.2019 21:00:00 9,7 7,1 0 0 OSO 1011,6 - 0,0
10.11.2019 20:00:00 10,3 7,4 0 0 OSO 1011,2 - 0,0
10.11.2019 19:00:00 11,5 7,0 1 0 ENE 1010,4 - 0,0
10.11.2019 18:00:00 12,0 6,7 0 0 NE 1009,5 - 0,0
10.11.2019 17:00:00 12,3 6,3 1 0 NNE 1008,8 - 0,0
10.11.2019 16:00:00 12,6 6,6 3 1 N 1008,1 - 0,0
10.11.2019 15:00:00 12,7 6,3 5 3 NNO 1007,6 - 0,0
10.11.2019 14:00:00 12,7 6,1 3 2 N 1007,3 - 0,0
10.11.2019 13:00:00 12,7 6,3 7 4 NNE 1007,4 - 0,0
10.11.2019 12:00:00 12,1 6,6 6 3 N 1007,3 - 0,0
10.11.2019 11:00:00 11,8 6,3 3 2 O 1007,4 - 0,0
10.11.2019 10:00:00 10,6 6,4 6 4 ONO 1007,0 - 0,0
10.11.2019 09:00:00 8,9 6,5 8 4 O 1006,8 - 0,0
10.11.2019 08:00:00 7,2 5,7 8 4 O 1006,7 - 0,0
10.11.2019 07:00:00 6,3 4,9 - - - 1006,4 - -
10.11.2019 06:00:00 7,4 5,7 7 4 NO 1006,3 - 0,0
10.11.2019 05:00:00 8,6 6,2 3 2 NO 1006,5 - 0,0
10.11.2019 04:00:00 8,8 6,8 4 2 O 1006,1 - 0,0
10.11.2019 03:00:00 9,6 6,9 6 3 ONO 1006,3 - 0,0
10.11.2019 02:00:00 9,8 6,9 7 4 O 1006,6 - 0,0
10.11.2019 01:00:00 10,2 6,9 9 5 ONO 1006,5 - 0,0
10.11.2019 00:00:00 10,3 7,2 4 2 O 1006,5 - 0,0
09.11.2019 23:00:00 10,1 7,0 4 2 O 1006,8 - 0,0
09.11.2019 22:00:00 10,1 7,0 4 2 O 1006,9 - 0,0
09.11.2019 21:00:00 10,6 6,9 5 3 ONO 1007,1 - 0,0
09.11.2019 20:00:00 10,6 7,3 0 0 OSO 1007,1 - 0,0
09.11.2019 19:00:00 11,4 7,1 0 0 S 1007,3 - 0,0
09.11.2019 18:00:00 12,5 6,5 - - - 1007,3 - 0,0
09.11.2019 17:00:00 13,1 6,0 1 1 ENE 1006,7 - 0,0
09.11.2019 16:00:00 13,9 5,3 3 2 N 1006,6 - 0,0
09.11.2019 15:00:00 13,9 5,8 5 3 NNE 1006,6 - 0,0
09.11.2019 14:00:00 14,3 5,6 5 3 NNO 1006,5 - 0,0
09.11.2019 13:00:00 14,0 5,6 13 7 NNE 1006,8 - 0,0
09.11.2019 12:00:00 14,2 5,3 6 3 NNE 1007,2 - 0,0
09.11.2019 11:00:00 13,3 5,0 2 1 N 1007,3 - 0,0
09.11.2019 10:00:00 12,0 4,9 4 2 ENE 1007,1 - 0,0
09.11.2019 09:00:00 10,6 4,3 4 2 SSE 1006,8 - 0,0
09.11.2019 08:00:00 10,0 3,7 9 5 OSO 1006,5 - 0,0
09.11.2019 07:00:00 9,3 3,7 9 5 OSO 1005,9 - 0,0
09.11.2019 06:00:00 8,9 3,7 8 5 OSO 1005,5 - 0,0
09.11.2019 05:00:00 9,1 3,5 3 2 S 1004,7 - 0,0
09.11.2019 04:00:00 8,8 3,8 9 5 OSO 1003,8 - 0,0
09.11.2019 03:00:00 9,1 4,9 12 6 SO 1003,3 - 0,0
09.11.2019 02:00:00 9,5 5,1 18 10 SO 1003,7 - 0,0
09.11.2019 01:00:00 10,2 6,7 13 7 OSO 1003,3 - 0,0
09.11.2019 00:00:00 10,3 8,7 3 2 SO 1002,9 - 0,6
08.11.2019 23:00:00 10,6 8,7 3 1 O 1002,7 - 2,4
08.11.2019 22:00:00 10,7 8,5 0 0 S 1003,1 - 0,6
08.11.2019 21:00:00 10,9 7,9 2 1 O 1002,3 - 0,2
08.11.2019 20:00:00 11,8 8,3 4 2 SSO 1001,9 - 0,2
08.11.2019 19:00:00 11,6 8,5 0 0 S 1001,9 - 0,8
08.11.2019 18:00:00 12,3 8,4 8 4 S 1001,5 8 0,4
08.11.2019 17:00:00 14,0 8,2 8 4 OSO 1000,8 10 0,0
08.11.2019 16:00:00 14,2 11,4 2 1 - 1000,5 10 0,0
08.11.2019 15:00:00 13,8 11,7 2 1 - 999,9 10 0,0
08.11.2019 14:00:00 13,2 10,9 0 0 N 999,8 7 0,2
08.11.2019 13:00:00 12,4 11,0 11 6 ONO 1000,4 5 1,4
08.11.2019 12:00:00 12,6 10,0 8 4 ONO 999,9 10 0,0
08.11.2019 11:00:00 15,2 8,7 9 5 ENE 999,6 10 0,0
08.11.2019 10:00:00 14,9 8,8 9 5 ESE 999,5 10 0,0
08.11.2019 09:00:00 13,9 9,3 4 2 ESE 999,8 - 0,0
08.11.2019 08:00:00 11,9 8,7 6 3 ESE 999,7 - 0,2
08.11.2019 07:00:00 11,8 8,1 10 5 E 999,9 - 0,6
08.11.2019 06:00:00 12,6 7,3 12 6 ESE 1000,2 - 0,0
08.11.2019 05:00:00 13,0 6,8 11 6 E 1000,7 - 0,0
08.11.2019 04:00:00 12,8 5,9 13 7 SE 1001,1 - 0,0
08.11.2019 03:00:00 12,4 6,2 8 5 SE 1001,7 - 0,0
08.11.2019 02:00:00 11,6 6,3 9 5 ESE 1002,2 - 0,0
08.11.2019 01:00:00 11,3 6,6 9 5 SE 1002,7 - 0,0
08.11.2019 00:00:00 11,0 6,5 4 2 SE 1003,6 - 0,0
07.11.2019 23:00:00 12,7 6,3 9 5 SSE 1004,2 - 0,0
07.11.2019 22:00:00 - - - - - - - -
07.11.2019 21:00:00 11,5 6,6 6 3 SSE 1005,3 - 0,0
07.11.2019 20:00:00 11,1 6,8 6 4 S 1005,3 - 0,0
07.11.2019 19:00:00 11,9 7,0 6 3 SE 1005,4 - 0,0
07.11.2019 18:00:00 13,0 8,3 5 3 - 1005,4 10 0,0
07.11.2019 17:00:00 14,7 6,8 8 4 ESE 1005,2 10 0,0
07.11.2019 16:00:00 16,3 5,6 9 5 SSO 1005,4 10 0,0
07.11.2019 15:00:00 15,7 9,1 16 9 E 1005,2 10 0,0
07.11.2019 14:00:00 15,8 9,0 9 5 ENE 1005,2 10 0,0
07.11.2019 13:00:00 15,0 8,2 9 5 NE 1005,1 10 0,0
07.11.2019 12:00:00 14,7 7,3 4 2 - 1005,7 10 0,0
07.11.2019 11:00:00 13,6 6,9 2 1 - 1006,3 10 0,0
07.11.2019 10:00:00 11,9 6,6 3 2 NO 1006,4 10 0,0
07.11.2019 09:00:00 9,8 6,0 4 2 SO 1006,5 - 0,0
07.11.2019 08:00:00 8,0 5,5 4 2 SSO 1006,0 - 0,0
07.11.2019 07:00:00 7,7 6,0 1 1 S 1005,3 - 0,0
07.11.2019 06:00:00 8,3 6,3 - - - 1004,8 - 0,0
07.11.2019 05:00:00 9,6 7,2 5 3 SSE 1004,8 - 0,0
07.11.2019 04:00:00 10,2 6,9 1 1 S 1004,7 - 0,0
07.11.2019 03:00:00 10,3 7,2 4 2 OSO 1004,5 - 0,0
07.11.2019 02:00:00 10,3 7,5 0 0 O 1004,2 - 0,0
07.11.2019 01:00:00 10,1 7,2 2 1 O 1004,0 - 0,0
07.11.2019 00:00:00 9,9 6,6 1 1 O 1003,7 - 0,0
06.11.2019 23:00:00 11,2 6,1 4 2 ONO 1003,4 - 0,0
06.11.2019 22:00:00 11,2 6,1 3 2 S 1003,3 - 0,0
06.11.2019 21:00:00 12,3 5,7 3 1 NNO 1003,0 - 0,0
06.11.2019 20:00:00 12,7 5,4 3 2 O 1002,5 - 0,0
06.11.2019 19:00:00 12,8 5,5 5 3 S 1002,2 - 0,0
06.11.2019 18:00:00 12,8 5,9 5 3 - 1002,2 10 -
06.11.2019 17:00:00 13,4 5,5 9 5 S 1001,7 10 0,0
06.11.2019 16:00:00 15,1 5,6 9 5 OSO 1001,7 10 0,0
06.11.2019 15:00:00 16,2 5,2 13 7 OSO 1001,2 10 0,0
06.11.2019 14:00:00 16,9 6,7 13 7 SO 1000,8 10 0,0
06.11.2019 13:00:00 13,6 8,0 13 7 SE 1001,2 10 0,0
06.11.2019 12:00:00 12,6 6,8 5 3 - 1001,8 10 0,2
06.11.2019 11:00:00 10,9 8,5 11 6 ESE 1002,3 8 1,8
06.11.2019 10:00:00 11,6 8,3 9 5 SO 1002,1 7 1,2
06.11.2019 09:00:00 13,9 7,4 6 3 O 1001,4 - 0,0
06.11.2019 08:00:00 13,5 6,6 2 1 O 1000,8 - 0,0
06.11.2019 07:00:00 12,6 6,4 7 4 SSE 1000,1 - 0,0

tt = Temperatura
td = dewpoint
ff = velocità del vento
dd = direzione del vento
ppp = reduced air pressure
vv = visibility
rr = precipitazioni

Stazioni seguenti

WeatherPro
AMSI
MeteoEarth